This is the latest recevied weather packets stored in our database for station/object KO4RMV-3. If no packets are shown the sender has not sent any weather packets the latest 10 day(s).
| Time | Temp. | Humidity | Pressure | Rain* | Wind** | Luminosity | Snow |
|---|---|---|---|---|---|---|---|
| 1777826705 | 17.22° C | 32% | - | 0 mm | - | - | - |
| 1777825805 | 16.67° C | 32% | - | 0 mm | - | - | - |
| 1777824905 | 16.11° C | 32% | - | 0 mm | - | - | - |
| 1777824005 | 16.11° C | 33% | - | 0 mm | - | - | - |
| 1777823105 | 15.56° C | 34% | - | 0 mm | - | - | - |
| 1777822205 | 15° C | 34% | - | 0 mm | - | - | - |
| 1777821305 | 15° C | 35% | - | 0 mm | - | - | - |
| 1777820405 | 14.44° C | 34% | - | 0 mm | - | - | - |
| 1777819505 | 13.89° C | 35% | - | 0 mm | - | - | - |
| 1777818606 | 12.78° C | 34% | - | 0 mm | - | - | - |
| 1777817706 | 12.78° C | 35% | - | 0 mm | - | - | - |
| 1777816806 | 12.22° C | 35% | - | 0 mm | - | - | - |
| 1777815906 | 11.67° C | 39% | - | 0 mm | - | - | - |
| 1777815006 | 11.11° C | 44% | - | 0 mm | - | - | - |
| 1777814106 | 10.56° C | 50% | - | 0 mm | - | - | - |
| 1777813206 | 10° C | 53% | - | 0 mm | - | - | - |
| 1777812306 | 10° C | 57% | - | 0 mm | - | - | - |
| 1777811405 | 9.44° C | 59% | - | 0 mm | - | - | - |
| 1777810505 | 8.89° C | 58% | - | 0 mm | - | - | - |
| 1777809605 | 8.89° C | 64% | - | 0 mm | - | - | - |
| 1777808705 | 7.78° C | 68% | - | 0 mm | - | - | - |
| 1777807805 | 6.67° C | 71% | - | 0 mm | - | - | - |
| 1777806905 | 6.11° C | 73% | - | 0 mm | - | - | - |
| 1777806005 | 6.11° C | 71% | - | 0 mm | - | - | - |
| 1777805105 | 6.11° C | 70% | - | 0 mm | - | - | - |
* Rain latest hour (hover to see other rain measurements)
** Current wind speed in m/s (hover to see current wind gust speed)